Weather in Dubovyy Gay

Russia / Saratov Oblast     52°31′01″N   47°36′17″E
temp.,
°C
wind,
m/s
gust,
m/s
humid.,
%
clouds,
%
prec.,
mm/h
press.,
hPa
HPBL,
m
24 may, tue
tue2401:00+3nw22800 0.0 100619
04:00+2wnw22840 0.0 100613
07:00+5wsw23691 0.0 1007206
10:00+11wsw46555 0.0 1007999
13:00+15wsw574369 0.0 10062294
16:00+14sw4748100 0.0 10071790
19:00+13sw475861 0.1 1007384
22:00+9wsw377594 0.2 1008119
25 may, wed
wed2501:00+7sw118120 0.0 100711
04:00+6nnw41084100 0.0 1009379
07:00+6nw587747 0.0 1010668
10:00+9nw575440 0.0 10111550
13:00+10nw574699 0.0 10122067
16:00+10nw5745100 0.0 10131864
19:00+10nw46535 0.0 10141574
22:00+5wnw22683 0.0 101521
26 may, thu
thu2601:00+3w22745 0.0 101612
04:00+2wsw118129 0.0 101610
07:00+6wsw23746 0.0 1017208
10:00+11wsw455658 0.0 10161567
13:00+13wsw5746100 0.1 10152033
16:00+14wsw5751100 0.1 10151801
19:00+13ssw476399 0.0 1014683
22:00+11s41167100 0.0 1013332
27 may, fri
fri2701:00+11s61467100 0.0 1012452
04:00+11ssw61474100 0.0 1009663
07:00+11ssw81588100 0.7 10081134
10:00+15sw8117124 1.1 10071221
13:00+16wsw7116890 0.9 10071389
16:00+13ssw6138798 1.8 1006702
19:00+15wsw510775 2.2 1006967
22:00+11wsw411885 2.8 1008272
28 may, sat
sat2801:00+9wsw3119216 0.0 1010240
04:00+8sw359387 0.0 101193
07:00+11sw3883100 0.0 1011259
10:00+16sw7106199 0.0 10111181
13:00+20sw8125238 0.0 10102012
16:00+21ssw7125977 0.0 10081957
19:00+20ssw9146680 0.1 10081255
22:00+15sw4993100 2.1 1011375